Regional Weather Roundup
Issued by NWS

Home | Current Version | Previous Version | Text Only | Print | Product List | Glossary On
Versions: 1 2 3 4 5 6 7 8 9 10 11 12 13 14 15 16 17 18 19 20 21 22 23 24 25 26 27 28 29 30 31 32 33 34 35 36 37 38 39 40 41 42 43 44 45 46 47 48 49 50
000
ASUS42 KTBW 300410
RWRFL
FLORIDA REGIONAL WEATHER ROUNDUP
NATIONAL WEATHER SERVICE TAMPA BAY RUSKIN FL
1200 AM EDT SAT AUG 30 2014

NOTE: "FAIR" INDICATES FEW OR NO CLOUDS BELOW 12,000 FEET WITH NO
SIGNIFICANT WEATHER AND/OR OBSTRUCTIONS TO VISIBILITY.


FLZ001>010-012>015-112-114-115-300500-
PANHANDLE FLORIDA

CITY           SKY/WX    TMP DP  RH WIND       PRES   REMARKS
PENSACOLA      LGT RAIN  76  72  87 S5        30.05S
PENSACOLA NAS  CLOUDY    78  73  84 SW7       30.04F
MILTON NAS     MOCLDY    77  73  87 S3        30.05F
CRESTVIEW      PTCLDY    78  74  87 SE3       30.08S
DUKE FIELD     FAIR      78  78  99 SE3       30.06S
VALPARAISO     PTCLDY    83  76  80 S7        30.05S
TRI COUNTY     LGT RAIN  75  74  96 CALM      30.07F FOG
PANAMA CITY    FAIR      79  75  87 CALM      30.05F
TYNDALL AFB    PTCLDY    79  77  92 S7        30.07S
APALACHICOLA   CLEAR     82  75  79 SW5       30.06F

STATION/POSITION SKY/WX   TEMP    WIND        PRES    WAVE   SWELL
                          AIR SEA DIR/SP/G            HT/PER HT/PER
                          (F)     (DEG/KT/KT) (MB)    (FT/S) (FT/S)
30.1N   87.6W              80 85  140/  6/  8 1017.3F   2/ 6   2/ 6
29.2N   88.2W              82 85  150/  8/  8 1017.9
28.8N   86.0W              84 86  150/  8/ 12 1017.7S   2/ 5   2/ 5
PANAMA CITY BEAC           84 86  180/ 10/ 12 1017.8S
CAPE SAN BLAS    NOT AVBL
TOWER C                    83     190/  5/  5 1018.1S
28.5N   84.5W              85 86  130/  8/ 10 1018.0S   1/ 5   2/ 5

$$
FLZ011-016>038-118-127-128-134-139-239-300500-
NORTH FLORIDA

CITY           SKY/WX    TMP DP  RH WIND       PRES   REMARKS
MARIANNA       PTCLDY    76  76 100 SW3       30.06F
TALLAHASSEE    PTCLDY    78  75  90 CALM      30.08R
PERRY          MOCLDY    77  73  88 CALM      30.10S
CROSS CITY       N/A     76  72  87 VRB5      30.11R
LAKE CITY      FAIR      72  72 100 CALM      30.11R
GAINESVILLE    CLOUDY    73  72  96 CALM      30.12R
MAYPORT NAS    CLEAR     79  74  84 S7        30.10R
JACKSONVILLE   PTCLDY    76  74  93 S6        30.10R
JAX NAS        MOCLDY    82  75  79 SW8       30.11R
JAX CRAIG      CLEAR     77  73  87 S5        30.11R
JAX CECIL      MOCLDY    75  73  94 S3        30.11S
FERNANDINA BEA FAIR      81  72  74 S6        30.09R
ST AUGUSTINE   PTCLDY    77  72  84 SW9       30.13R

STATION/POSITION SKY/WX   TEMP    WIND        PRES    WAVE   SWELL
                          AIR SEA DIR/SP/G            HT/PER HT/PER
                          (F)     (DEG/KT/KT) (MB)    (FT/S) (FT/S)
SHELL POINT                83     200/  6/  9   N/A
KEATON BEACH               77      50/  3/  4 1019.0R
CEDAR KEY                  84     230/  5/  7 1018.6R
FERNANDINA                 81 85  150/  4/  6 1018.7R
30.7N   81.3W                 84                N/A     3/ 9
MAYPORT                    79 84  180/  4/  6   N/A
31.4N   80.9W              84 84  140/ 14/ 16 1018.7F   2/ 8   2/ 8
ST AUGUSTINE               78     210/  9/ 11 1020.4R

$$
FLZ040-043>046-052-053-057-058-063-144-300500-
INTERIOR CENTRAL FLORIDA

CITY           SKY/WX    TMP DP  RH WIND       PRES   REMARKS
OCALA          CLOUDY    73  73 100 CALM      30.12S
LEESBURG       CLOUDY    78  74  87 S7        30.12F
SANFORD        CLOUDY    76  73  91 S6        30.11F
ORLANDO EXEC   CLOUDY    76  73  91 S5        30.11F
ORLANDO INTL   CLOUDY    75  73  93 E8        30.10F
WINTER HAVEN   LGT RAIN  75  72  90 N7        30.10F
LAKELAND       LGT RAIN  73  73 100 SE8       30.08F
BARTOW         FAIR      73 N/A N/A CALM      30.09F
OKEECHOBEE       N/A     73  72  94 MISG        N/A

$$
FLZ041-047-054-059-064-141-147-300500-
EAST CENTRAL FLORIDA

CITY           SKY/WX    TMP DP  RH WIND       PRES   REMARKS
DAYTONA BEACH  MOCLDY    75  72  90 SW6       30.12S
DELAND         CLOUDY    75  73  94 S7        30.13S
JFK SPACE CTR  CLOUDY    76  71  86 SW10      30.12F
CAPE CANAVERAL CLOUDY    78  71  79 SW5       30.11F
PATRICK AFB    CLOUDY    77  74  91 W9        30.13S
MELBOURNE      CLOUDY    76  73  91 W6        30.13F
VERO BEACH     MOCLDY    73  69  87 E3        30.13F
FT PIERCE      MOCLDY    75  71  87 N5        30.13S
STUART         MOCLDY    79  73  83 N6        30.15R

STATION/POSITION SKY/WX   TEMP    WIND        PRES    WAVE   SWELL
                          AIR SEA DIR/SP/G            HT/PER HT/PER
                          (F)     (DEG/KT/KT) (MB)    (FT/S) (FT/S)
28.5N   80.2W              80 83  180/ 12/ 14 1020.6R
28.9N   78.5W              83 84  100/  2/  4 1020.6S   3/ 8   3/ 8
TRIDENT PIER               81 85  200/  5/  8 1019.6F
28.4N   80.5W                 83                N/A     2/ 8
27.6N   80.2W                 85                N/A     3/ 8

$$
FLZ050-056-061-142-242-148-248-149-249-151-251-155-255-
160-260-300500-
WEST CENTRAL FLORIDA

CITY           SKY/WX    TMP DP  RH WIND       PRES   REMARKS
CRYSTAL RIVER  FAIR      77  73  88 E3        30.10S
INVERNESS      FAIR      75  72  88 SE3       30.11F
BROOKSVILLE    CLOUDY    76  73  91 NE3       30.11F
ZEPHYRHILLS    FAIR      72  70  94 CALM      30.10F
CLEARWATER     CLOUDY    79  73  82 SE10      30.09S
TAMPA INTL     CLOUDY    78  69  73 MISG      30.11R
TAMPA EXEC     LGT RAIN  77  72  83 CALM      30.10F
PLANT CITY     LGT RAIN  75 N/A N/A CALM      30.10F
MACDILL AFB    CLOUDY    77  74  90 E6        30.10F
ST PETERSBURG  CLOUDY    80  71  74 SE5       30.08F
SARASOTA       CLOUDY    77  71  82 SE8       30.07F
VENICE           N/A    N/A N/A N/A MISG        N/A

STATION/POSITION SKY/WX   TEMP    WIND        PRES    WAVE   SWELL
                          AIR SEA DIR/SP/G            HT/PER HT/PER
                          (F)     (DEG/KT/KT) (MB)    (FT/S) (FT/S)
CEDAR KEY                  84     230/  5/  7 1018.6R
28.5N   84.5W              85 86  130/  8/ 10 1018.0S   1/ 5   2/ 5
27.3N   84.3W                 87                N/A     2/ 5
CLEARWATER BEACH           83 88  110/ 10/ 13 1018.4F
MIDDLE TAMPA BAY           78     130/  9/ 11 1019.0F
VENICE                     75 88   80/  7/  8 1018.6F

$$
FLZ066-069-070-075>078-162-262-165-265-300500-
SOUTHWEST FLORIDA AND KEYS

CITY           SKY/WX    TMP DP  RH WIND       PRES   REMARKS
PUNTA GORDA    MOCLDY    75  72  90 E6        30.12R
FT MYERS       MOCLDY    74  71  91 E6        30.10R
SOUTHWEST INTL MOCLDY    75  71  87 E7        30.10S
NAPLES         MOCLDY    76  73  91 NE7       30.10R
MARCO ISLAND   PTCLDY    75  73  94 NE6       30.10S
MARATHON       PTCLDY    86  78  77 E12       30.07R HX  98
KEY WEST NAS   CLEAR     86  76  71 E13       30.08R HX  96
KEY WEST INTL  CLEAR     87  75  67 E15       30.08R HX  96

STATION/POSITION SKY/WX   TEMP    WIND        PRES    WAVE   SWELL
                          AIR SEA DIR/SP/G            HT/PER HT/PER
                          (F)     (DEG/KT/KT) (MB)    (FT/S) (FT/S)
VENICE                     75 88   80/  7/  8 1018.6F
NAPLES                     77      70/  5/  9 1019.8R
DRY TORTUGAS               87     120/ 19/ 20 1017.9R
NW FL BAY                  88     120/ 13/ 16 1018.2R
SAND KEY                   86     110/ 18/ 20 1018.2R
SOMBRERO KEY               86     120/ 19/ 20 1019.2R
LONG KEY                   86 88  110/ 13/ 16 1019.0R
MOLASSES REEF              86 87   80/ 12/ 14 1018.4R

$$
FLZ067-068-071>074-168-172>174-300500-
SOUTHEAST FLORIDA

CITY           SKY/WX    TMP DP  RH WIND       PRES   REMARKS
W PALM BEACH   PTCLDY    85  77  77 E5        30.11R HX  95
FT LAUDER-EXEC PTCLDY    85  78  80 E7        30.10R HX  96
FT LAUDERDALE  MOCLDY    87  76  69 E12       30.10R HX  97
POMPANO BEACH  PTCLDY    86  76  71 E7        30.11R HX  96
PEMBROKE PINES MOCLDY    84  77  79 E7        30.11R
OPA LOCKA      PTCLDY    84  76  76 E8        30.10S
MIAMI          MOCLDY    86  77  74 E10       30.10R HX  97
WEST KENDALL   MOCLDY    85  77  77 E6        30.09S HX  95
HOMESTEAD      CLEAR     85  77  76 E8        30.09S HX  96

STATION/POSITION SKY/WX   TEMP    WIND        PRES    WAVE   SWELL
                          AIR SEA DIR/SP/G            HT/PER HT/PER
                          (F)     (DEG/KT/KT) (MB)    (FT/S) (FT/S)
PORT EVERGLADES            86      90/  7/ 10 1019.1
VIRGINIA KEY               86 87  100/ 11/ 14   N/A
LAKE WORTH                 85 87   90/  8/  8 1019.6R
FOWEY ROCKS                86 87  110/ 17/ 18 1019.2F
SETTLEMENT POINT           83     130/  6/  6 1020.3R

$$




USA.gov is the U.S. government's official web portal to all federal, state and local government web resources and services.